| time (UTC) | temp F | wind direction | speed knots | gust knots | rain 1hr in | rain 24hr in | rain mn in | humidity % | barometer mb |
| 20260509053916 | 52 | 173 | 2.6 | 4.3 | 0.00 | 0.00 | 0.00 | 93 | 1005.5 |
| 20260509052413 | 52 | 180 | 0.9 | 3.5 | 0.00 | 0.00 | 0.00 | 93 | 1005.7 |
| 20260509050913 | 52 | 0 | 1.7 | 4.3 | 0.00 | 0.00 | 0.00 | 92 | 1005.8 |
| 20260509045409 | 53 | 180 | 0.9 | 4.3 | 0.00 | 0.00 | 0.00 | 92 | 1005.7 |
| 20260509043907 | 53 | 180 | 0.9 | 3.5 | 0.00 | 0.00 | 0.00 | 92 | 1005.7 |
| 20260509042408 | 53 | 180 | 1.7 | 4.3 | 0.00 | 0.00 | 0.00 | 91 | 1005.7 |
| 20260509040907 | 54 | 0 | 1.7 | 4.3 | 0.00 | 0.00 | 0.00 | 90 | 1006.0 |
| 20260509035406 | 54 | 188 | 1.7 | 4.3 | 0.00 | 0.00 | 0.00 | 88 | 1006.1 |
| 20260509033905 | 55 | 188 | 1.7 | 4.3 | 0.00 | 0.00 | 0.00 | 87 | 1006.1 |
| 20260509032407 | 55 | 0 | 1.7 | 4.3 | 0.00 | 0.00 | 0.00 | 85 | 1006.2 |
| 20260509030908 | 56 | 0 | 1.7 | 4.3 | 0.00 | 0.00 | 0.00 | 83 | 1006.4 |
| 20260509025405 | 57 | 204 | 3.5 | 7.0 | 0.00 | 0.00 | 0.00 | 81 | 1006.4 |
| 20260509023904 | 57 | 205 | 3.5 | 7.0 | 0.00 | 0.00 | 0.00 | 81 | 1006.6 |
| 20260509022405 | 57 | 212 | 3.5 | 7.0 | 0.00 | 0.00 | 0.00 | 81 | 1006.5 |
| 20260509020903 | 57 | 193 | 3.5 | 7.0 | 0.00 | 0.00 | 0.00 | 82 | 1006.4 |
| 20260509015404 | 57 | 191 | 4.3 | 7.8 | 0.00 | 0.00 | 0.00 | 82 | 1006.4 |
| 20260509013904 | 57 | 0 | 4.3 | 7.0 | 0.00 | 0.00 | 0.00 | 82 | 1006.4 |
| 20260509012404 | 58 | 0 | 3.5 | 7.0 | 0.00 | 0.00 | 0.00 | 81 | 1006.1 |
| 20260509010903 | 58 | 192 | 2.6 | 6.1 | 0.00 | 0.02 | 0.00 | 80 | 1006.0 |
| 20260509005403 | 58 | 0 | 0.9 | 5.2 | 0.00 | 0.04 | 0.00 | 79 | 1005.9 |
| 20260509003903 | 59 | 0 | 2.6 | 4.3 | 0.00 | 0.07 | 0.00 | 79 | 1005.9 |
| 20260509002402 | 59 | 0 | 1.7 | 5.2 | 0.00 | 0.07 | 0.00 | 78 | 1005.7 |
| 20260509000901 | 60 | 0 | 2.6 | 6.1 | 0.00 | 0.07 | 0.00 | 77 | 1005.8 |
| 20260508235401 | 60 | 223 | 4.3 | 8.7 | 0.00 | 0.07 | 0.00 | 75 | 1005.9 |
| 20260508233911 | 60 | 0 | 3.5 | 9.6 | 0.00 | 0.07 | 0.00 | 76 | 1005.9 |
| 20260508232403 | 60 | 0 | 3.5 | 10.4 | 0.00 | 0.07 | 0.00 | 76 | 1005.9 |
| 20260508230905 | 60 | 246 | 4.3 | 11.3 | 0.00 | 0.07 | 0.00 | 77 | 1005.9 |
| 20260508225402 | 60 | 0 | 5.2 | 11.3 | 0.00 | 0.07 | 0.00 | 76 | 1006.0 |
| 20260508223904 | 60 | 224 | 3.5 | 7.8 | 0.00 | 0.07 | 0.00 | 76 | 1006.0 |
| 20260508222402 | 60 | 202 | 3.5 | 7.8 | 0.00 | 0.07 | 0.00 | 75 | 1006.1 |
| 20260508220902 | 60 | 190 | 3.5 | 6.1 | 0.00 | 0.07 | 0.00 | 74 | 1006.0 |
| 20260508215402 | 60 | 173 | 1.7 | 6.1 | 0.00 | 0.07 | 0.00 | 76 | 1006.0 |
| 20260508213901 | 60 | 161 | 2.6 | 6.1 | 0.00 | 0.07 | 0.00 | 75 | 1006.1 |
| 20260508212401 | 60 | 0 | 3.5 | 11.3 | 0.00 | 0.07 | 0.00 | 74 | 1006.1 |
| 20260508210900 | 60 | 238 | 1.7 | 11.3 | 0.00 | 0.07 | 0.00 | 72 | 1006.4 |
| 20260508205401 | 61 | 0 | 3.5 | 11.3 | 0.00 | 0.07 | 0.00 | 72 | 1006.4 |
| 20260508203901 | 61 | 136 | 1.7 | 11.3 | 0.00 | 0.07 | 0.00 | 74 | 1006.6 |
| 20260508202401 | 60 | 156 | 3.5 | 11.3 | 0.00 | 0.07 | 0.00 | 74 | 1006.8 |
| 20260508200904 | 62 | 155 | 2.6 | 11.3 | 0.00 | 0.07 | 0.00 | 73 | 1007.0 |
| 20260508195402 | 59 | 205 | 3.5 | 11.3 | 0.00 | 0.07 | 0.00 | 75 | 1007.2 |
| 20260508193901 | 59 | 179 | 3.5 | 11.3 | 0.00 | 0.07 | 0.00 | 77 | 1007.5 |
| 20260508192401 | 59 | 111 | 4.3 | 11.3 | 0.00 | 0.07 | 0.00 | 78 | 1007.7 |
| 20260508190900 | 58 | 0 | 3.5 | 11.3 | 0.00 | 0.07 | 0.00 | 80 | 1007.8 |
| 20260508185401 | 57 | 205 | 3.5 | 11.3 | 0.00 | 0.07 | 0.00 | 81 | 1008.3 |
| 20260508183901 | 57 | 229 | 5.2 | 11.3 | 0.00 | 0.07 | 0.00 | 81 | 1008.4 |
| 20260508182402 | 57 | 205 | 4.3 | 11.3 | 0.00 | 0.07 | 0.00 | 80 | 1008.7 |
| 20260508180902 | 57 | 0 | 5.2 | 11.3 | 0.00 | 0.07 | 0.00 | 79 | 1008.7 |
| 20260508175400 | 57 | 0 | 5.2 | 11.3 | 0.00 | 0.07 | 0.00 | 76 | 1009.1 |
| 20260508173900 | 57 | 201 | 4.3 | 11.3 | 0.00 | 0.07 | 0.00 | 76 | 1008.8 |
| 20260508172401 | 57 | 0 | 4.3 | 11.3 | 0.00 | 0.07 | 0.00 | 80 | 1009.2 |
| 20260508170901 | 57 | 214 | 5.2 | 11.3 | 0.00 | 0.07 | 0.00 | 82 | 1009.7 |
| 20260508165400 | 56 | 0 | 6.1 | 11.3 | 0.00 | 0.07 | 0.00 | 81 | 1009.7 |
| 20260508163858 | 56 | 0 | 5.2 | 11.3 | 0.00 | 0.07 | 0.00 | 82 | 1009.8 |
| 20260508162359 | 56 | 0 | 6.1 | 11.3 | 0.00 | 0.07 | 0.00 | 85 | 1010.0 |
| 20260508160858 | 56 | 0 | 5.2 | 9.6 | 0.00 | 0.07 | 0.00 | 83 | 1010.2 |
| 20260508155352 | 57 | 0 | 3.5 | 9.6 | 0.00 | 0.07 | 0.00 | 81 | 1010.1 |
| 20260508153852 | 56 | 0 | 3.5 | 9.6 | 0.00 | 0.07 | 0.00 | 82 | 1010.1 |
| 20260508152352 | 55 | 196 | 3.5 | 9.6 | 0.00 | 0.07 | 0.00 | 85 | 1010.0 |
| 20260508150852 | 55 | 0 | 2.6 | 8.7 | 0.00 | 0.07 | 0.00 | 87 | 1010.2 |
| 20260508145353 | 54 | 0 | 4.3 | 8.7 | 0.00 | 0.07 | 0.00 | 90 | 1010.1 |
| 20260508143852 | 53 | 0 | 4.3 | 7.8 | 0.00 | 0.07 | 0.00 | 91 | 1010.2 |
| 20260508142347 | 52 | 201 | 4.3 | 7.8 | 0.00 | 0.07 | 0.00 | 92 | 1010.1 |
| 20260508140848 | 51 | 187 | 3.5 | 7.8 | 0.00 | 0.07 | 0.00 | 92 | 1010.4 |
| 20260508135346 | 50 | 200 | 4.3 | 7.8 | 0.00 | 0.07 | 0.00 | 93 | 1010.7 |
| 20260508133846 | 49 | 247 | 0.9 | 5.2 | 0.00 | 0.07 | 0.00 | 93 | 1010.7 |
| 20260508132345 | 49 | 0 | 2.6 | 6.1 | 0.00 | 0.07 | 0.00 | 93 | 1010.8 |
| 20260508130847 | 49 | 0 | 2.6 | 5.2 | 0.00 | 0.07 | 0.00 | 93 | 1010.6 |
| 20260508125342 | 48 | 0 | 2.6 | 5.2 | 0.00 | 0.07 | 0.00 | 94 | 1010.6 |
| 20260508123843 | 47 | 201 | 2.6 | 5.2 | 0.00 | 0.07 | 0.00 | 94 | 1010.7 |
| 20260508122342 | 47 | 0 | 1.7 | 4.3 | 0.00 | 0.07 | 0.00 | 93 | 1010.4 |
| 20260508120842 | 47 | 0 | 1.7 | 6.1 | 0.00 | 0.07 | 0.00 | 94 | 1010.5 |
| 20260508115342 | 47 | 0 | 0.9 | 3.5 | 0.00 | 0.07 | 0.00 | 94 | 1010.4 |
| 20260508113842 | 46 | 197 | 0.0 | 0.9 | 0.00 | 0.07 | 0.00 | 94 | 1010.4 |
| 20260508112340 | 46 | 197 | 0.0 | 3.5 | 0.00 | 0.07 | 0.00 | 93 | 1010.1 |
| 20260508110837 | 45 | 197 | 1.7 | 4.3 | 0.00 | 0.07 | 0.00 | 94 | 1010.2 |
| 20260508105337 | 45 | 202 | 1.7 | 5.2 | 0.00 | 0.07 | 0.00 | 94 | 1010.1 |
| 20260508103838 | 45 | 217 | 0.9 | 5.2 | 0.00 | 0.07 | 0.00 | 93 | 1010.0 |
| 20260508102338 | 45 | 0 | 0.0 | 0.0 | 0.00 | 0.07 | 0.00 | 93 | 1010.0 |
| 20260508100838 | 45 | 0 | 0.0 | 0.9 | 0.00 | 0.07 | 0.00 | 93 | 1010.1 |
| 20260508095339 | 46 | 217 | 0.9 | 3.5 | 0.00 | 0.07 | 0.00 | 93 | 1010.1 |
| 20260508093837 | 46 | 217 | 0.9 | 4.3 | 0.00 | 0.07 | 0.00 | 94 | 1009.9 |
| 20260508092335 | 46 | 0 | 2.6 | 6.1 | 0.00 | 0.07 | 0.00 | 94 | 1010.0 |
| 20260508090835 | 45 | 223 | 2.6 | 6.1 | 0.00 | 0.07 | 0.00 | 94 | 1010.1 |
| 20260508085336 | 45 | 0 | 3.5 | 7.8 | 0.00 | 0.07 | 0.00 | 95 | 1010.1 |
| 20260508083833 | 44 | 0 | 2.6 | 5.2 | 0.00 | 0.07 | 0.00 | 95 | 1010.1 |
| 20260508082334 | 44 | 207 | 2.6 | 5.2 | 0.00 | 0.07 | 0.00 | 95 | 1010.1 |
| 20260508080835 | 44 | 0 | 3.5 | 5.2 | 0.00 | 0.07 | 0.00 | 95 | 1010.2 |
| 20260508075334 | 44 | 192 | 2.6 | 4.3 | 0.00 | 0.07 | 0.00 | 95 | 1010.2 |
| 20260508073835 | 44 | 177 | 0.9 | 3.5 | 0.00 | 0.07 | 0.00 | 95 | 1010.2 |
| 20260508072333 | 44 | 176 | 0.0 | 3.5 | 0.00 | 0.07 | 0.00 | 95 | 1010.2 |
| 20260508070835 | 44 | 175 | 0.0 | 0.0 | 0.00 | 0.07 | 0.00 | 95 | 1010.2 |
| 20260508065331 | 44 | 176 | 0.0 | 0.0 | 0.00 | 0.07 | 0.00 | 95 | 1010.3 |
| 20260508063830 | 43 | 175 | 0.0 | 0.0 | 0.00 | 0.07 | 0.00 | 95 | 1010.3 |
| 20260508062328 | 43 | 175 | 0.0 | 3.5 | 0.00 | 0.07 | 0.00 | 95 | 1010.3 |
| 20260508060827 | 44 | 175 | 0.0 | 0.0 | 0.00 | 0.07 | 0.00 | 95 | 1010.2 |
| 20260508055327 | 44 | 177 | 0.9 | 4.3 | 0.00 | 0.07 | 0.00 | 94 | 1010.4 |